| time (UTC) | temp F | wind direction | speed MPH | gust MPH | rain 1hr in | rain 24hr in | rain mn in | humidity % | barometer mb |
| 20260506084520 | 55 | 197 | 21.0 | 30.0 | 0.00 | 0.00 | 0.00 | 92 | 1012.2 |
| 20260506084018 | 55 | 198 | 20.0 | 30.0 | 0.00 | 0.00 | 0.00 | 92 | 1012.2 |
| 20260506083518 | 55 | 194 | 19.0 | 29.0 | 0.00 | 0.00 | 0.00 | 92 | 1012.3 |
| 20260506083017 | 55 | 199 | 20.0 | 29.0 | 0.00 | 0.00 | 0.00 | 92 | 1012.3 |
| 20260506082517 | 55 | 219 | 20.0 | 29.0 | 0.00 | 0.00 | 0.00 | 92 | 1012.4 |
| 20260506082017 | 55 | 206 | 20.0 | 30.0 | 0.00 | 0.00 | 0.00 | 92 | 1012.4 |
| 20260506081520 | 55 | 196 | 22.0 | 30.0 | 0.00 | 0.00 | 0.00 | 92 | 1012.4 |
| 20260506081018 | 55 | 171 | 21.0 | 33.0 | 0.00 | 0.00 | 0.00 | 92 | 1012.3 |
| 20260506080518 | 55 | 186 | 22.0 | 33.0 | 0.00 | 0.00 | 0.00 | 92 | 1012.4 |
| 20260506073511 | 55 | 198 | 20.0 | 31.0 | 0.00 | 0.00 | 0.00 | 92 | 1012.3 |
| 20260506073011 | 55 | 198 | 18.0 | 31.0 | 0.00 | 0.00 | 0.00 | 91 | 1012.2 |
| 20260506072512 | 55 | 191 | 22.0 | 34.0 | 0.00 | 0.00 | 0.00 | 91 | 1012.4 |
| 20260506072010 | 55 | 197 | 19.0 | 30.0 | 0.00 | 0.00 | 0.00 | 91 | 1012.5 |
| 20260506071509 | 55 | 200 | 21.0 | 30.0 | 0.00 | 0.00 | 0.00 | 91 | 1012.5 |
| 20260506071008 | 55 | 186 | 21.0 | 30.0 | 0.00 | 0.00 | 0.00 | 91 | 1012.5 |
| 20260506070511 | 55 | 186 | 20.0 | 32.0 | 0.00 | 0.00 | 0.00 | 91 | 1012.4 |
| 20260506062507 | 55 | 214 | 22.0 | 30.0 | 0.00 | 0.00 | 0.00 | 90 | 1012.3 |
| 20260506062005 | 55 | 188 | 20.0 | 30.0 | 0.00 | 0.00 | 0.00 | 90 | 1012.4 |
| 20260506061505 | 55 | 186 | 21.0 | 28.0 | 0.00 | 0.00 | 0.00 | 91 | 1012.4 |
| 20260506061007 | 55 | 189 | 20.0 | 30.0 | 0.00 | 0.00 | 0.00 | 90 | 1012.4 |
| 20260506060504 | 55 | 211 | 21.0 | 30.0 | 0.00 | 0.00 | 0.00 | 90 | 1012.4 |
| 20260506051057 | 56 | 178 | 20.0 | 30.0 | 0.00 | 0.00 | 0.00 | 89 | 1012.9 |
| 20260506050556 | 56 | 208 | 22.0 | 31.0 | 0.00 | 0.00 | 0.00 | 88 | 1012.9 |
| 20260506050107 | 56 | 200 | 22.0 | 31.0 | 0.00 | 0.00 | 0.00 | 88 | 1012.9 |
| 20260506045053 | 57 | 207 | 22.0 | 34.0 | 0.00 | 0.00 | 0.00 | 88 | 1013.0 |
| 20260506044554 | 57 | 198 | 23.0 | 33.0 | 0.00 | 0.00 | 0.00 | 88 | 1012.9 |
| 20260506044052 | 57 | 216 | 22.0 | 32.0 | 0.00 | 0.00 | 0.00 | 88 | 1013.0 |
| 20260506043551 | 57 | 178 | 24.0 | 34.0 | 0.00 | 0.00 | 0.00 | 87 | 1013.0 |
| 20260506043052 | 57 | 188 | 23.0 | 34.0 | 0.00 | 0.00 | 0.00 | 87 | 1013.0 |
| 20260506042551 | 57 | 209 | 23.0 | 38.0 | 0.00 | 0.00 | 0.00 | 87 | 1013.0 |
| 20260506042051 | 57 | 198 | 24.0 | 38.0 | 0.00 | 0.00 | 0.00 | 87 | 1012.9 |
| 20260506041551 | 57 | 194 | 23.0 | 35.0 | 0.00 | 0.00 | 0.00 | 87 | 1012.8 |
| 20260506041050 | 57 | 198 | 24.0 | 34.0 | 0.00 | 0.00 | 0.00 | 87 | 1013.0 |
| 20260506040549 | 57 | 215 | 24.0 | 32.0 | 0.00 | 0.00 | 0.00 | 87 | 1013.0 |
| 20260506040048 | 57 | 209 | 25.0 | 36.0 | 0.00 | 0.00 | 0.00 | 87 | 1013.0 |
| 20260506035550 | 57 | 207 | 26.0 | 36.0 | 0.00 | 0.00 | 0.00 | 87 | 1013.0 |
| 20260506035048 | 57 | 208 | 24.0 | 34.0 | 0.00 | 0.00 | 0.00 | 87 | 1013.0 |
| 20260506034559 | 57 | 201 | 26.0 | 34.0 | 0.00 | 0.00 | 0.00 | 86 | 1012.9 |
| 20260506034046 | 57 | 222 | 25.0 | 34.0 | 0.00 | 0.00 | 0.00 | 86 | 1012.9 |
| 20260506033547 | 57 | 187 | 23.0 | 32.0 | 0.00 | 0.00 | 0.00 | 86 | 1012.9 |
| 20260506033047 | 58 | 204 | 23.0 | 35.0 | 0.00 | 0.00 | 0.00 | 86 | 1012.9 |
| 20260506032550 | 58 | 198 | 23.0 | 35.0 | 0.00 | 0.00 | 0.00 | 86 | 1012.8 |
| 20260506032049 | 58 | 205 | 25.0 | 35.0 | 0.00 | 0.00 | 0.00 | 86 | 1012.8 |
| 20260506031547 | 58 | 160 | 25.0 | 38.0 | 0.00 | 0.00 | 0.00 | 85 | 1012.8 |
| 20260506031046 | 58 | 213 | 23.0 | 38.0 | 0.00 | 0.00 | 0.00 | 85 | 1012.8 |
| 20260506030546 | 58 | 242 | 23.0 | 33.0 | 0.00 | 0.00 | 0.00 | 85 | 1012.8 |
| 20260506030046 | 58 | 169 | 24.0 | 37.0 | 0.00 | 0.00 | 0.00 | 86 | 1012.8 |
| 20260506025549 | 58 | 233 | 22.0 | 37.0 | 0.00 | 0.00 | 0.00 | 86 | 1012.9 |
| 20260506025044 | 58 | 192 | 21.0 | 33.0 | 0.00 | 0.00 | 0.00 | 85 | 1012.9 |
| 20260506024602 | 58 | 236 | 22.0 | 35.0 | 0.00 | 0.00 | 0.00 | 85 | 1012.9 |
| 20260506024044 | 58 | 219 | 24.0 | 35.0 | 0.00 | 0.00 | 0.00 | 85 | 1012.8 |
| 20260506023543 | 58 | 205 | 20.0 | 32.0 | 0.00 | 0.00 | 0.00 | 86 | 1012.9 |
| 20260506023044 | 58 | 206 | 21.0 | 32.0 | 0.00 | 0.00 | 0.00 | 86 | 1012.8 |
| 20260506022543 | 58 | 204 | 22.0 | 36.0 | 0.00 | 0.00 | 0.00 | 85 | 1012.9 |
| 20260506022043 | 58 | 202 | 24.0 | 36.0 | 0.00 | 0.00 | 0.00 | 85 | 1012.9 |
| 20260506021545 | 58 | 192 | 22.0 | 43.0 | 0.00 | 0.00 | 0.00 | 85 | 1012.8 |
| 20260506021042 | 58 | 198 | 26.0 | 38.0 | 0.00 | 0.00 | 0.00 | 85 | 1012.9 |
| 20260506020541 | 58 | 197 | 24.0 | 35.0 | 0.00 | 0.00 | 0.00 | 85 | 1012.9 |
| 20260506020042 | 58 | 184 | 23.0 | 35.0 | 0.00 | 0.00 | 0.00 | 85 | 1013.0 |
| 20260506015546 | 58 | 188 | 22.0 | 33.0 | 0.00 | 0.00 | 0.00 | 85 | 1012.8 |
| 20260506015042 | 58 | 201 | 24.0 | 32.0 | 0.00 | 0.00 | 0.00 | 85 | 1012.9 |
| 20260506014546 | 58 | 238 | 22.0 | 33.0 | 0.00 | 0.00 | 0.00 | 84 | 1012.8 |
| 20260506014045 | 58 | 195 | 23.0 | 33.0 | 0.00 | 0.00 | 0.00 | 84 | 1012.7 |
| 20260506013544 | 58 | 209 | 24.0 | 33.0 | 0.00 | 0.00 | 0.00 | 84 | 1012.7 |
| 20260506013058 | 58 | 240 | 24.0 | 33.0 | 0.00 | 0.00 | 0.00 | 84 | 1012.5 |
| 20260506012541 | 58 | 200 | 21.0 | 30.0 | 0.00 | 0.00 | 0.00 | 84 | 1012.7 |
| 20260506012041 | 58 | 200 | 21.0 | 30.0 | 0.00 | 0.00 | 0.00 | 83 | 1012.6 |
| 20260506011542 | 59 | 177 | 22.0 | 31.0 | 0.00 | 0.00 | 0.00 | 82 | 1012.6 |
| 20260506011040 | 59 | 222 | 23.0 | 33.0 | 0.00 | 0.00 | 0.00 | 82 | 1012.6 |
| 20260506010540 | 59 | 190 | 24.0 | 33.0 | 0.00 | 0.00 | 0.00 | 82 | 1012.4 |
| 20260506010040 | 59 | 192 | 24.0 | 35.0 | 0.00 | 0.00 | 0.00 | 83 | 1012.4 |
| 20260506005540 | 59 | 204 | 26.0 | 35.0 | 0.00 | 0.00 | 0.00 | 83 | 1012.3 |
| 20260506005038 | 59 | 190 | 23.0 | 35.0 | 0.00 | 0.00 | 0.00 | 82 | 1012.1 |
| 20260506004539 | 59 | 202 | 26.0 | 35.0 | 0.00 | 0.00 | 0.00 | 82 | 1012.1 |
| 20260506004039 | 60 | 187 | 25.0 | 38.0 | 0.00 | 0.00 | 0.00 | 81 | 1012.1 |
| 20260506003538 | 60 | 191 | 25.0 | 38.0 | 0.00 | 0.00 | 0.00 | 81 | 1012.0 |
| 20260506003039 | 60 | 203 | 25.0 | 36.0 | 0.00 | 0.00 | 0.00 | 81 | 1011.9 |
| 20260506002538 | 59 | 214 | 23.0 | 36.0 | 0.00 | 0.00 | 0.00 | 81 | 1011.8 |
| 20260506002042 | 59 | 228 | 25.0 | 38.0 | 0.00 | 0.00 | 0.00 | 81 | 1011.8 |
| 20260506001541 | 60 | 242 | 24.0 | 38.0 | 0.00 | 0.00 | 0.00 | 80 | 1011.8 |
| 20260506001038 | 60 | 209 | 25.0 | 38.0 | 0.00 | 0.00 | 0.00 | 79 | 1011.7 |
| 20260506000537 | 61 | 160 | 23.0 | 38.0 | 0.00 | 0.00 | 0.00 | 79 | 1011.5 |
| 20260506000037 | 61 | 215 | 25.0 | 38.0 | 0.00 | 0.00 | 0.00 | 79 | 1011.5 |
| 20260505235537 | 61 | 178 | 24.0 | 43.0 | 0.00 | 0.00 | 0.00 | 79 | 1011.4 |
| 20260505235036 | 61 | 215 | 21.0 | 43.0 | 0.00 | 0.00 | 0.00 | 80 | 1011.3 |
| 20260505234537 | 60 | 224 | 24.0 | 41.0 | 0.00 | 0.00 | 0.00 | 80 | 1011.3 |
| 20260505234036 | 60 | 226 | 25.0 | 41.0 | 0.00 | 0.00 | 0.00 | 80 | 1011.1 |
| 20260505233536 | 60 | 192 | 25.0 | 41.0 | 0.00 | 0.00 | 0.00 | 80 | 1011.0 |
| 20260505233035 | 60 | 195 | 28.0 | 40.0 | 0.00 | 0.00 | 0.00 | 80 | 1010.9 |
| 20260505232535 | 60 | 203 | 29.0 | 41.0 | 0.00 | 0.00 | 0.00 | 80 | 1010.8 |
| 20260505232035 | 60 | 197 | 26.0 | 41.0 | 0.00 | 0.00 | 0.00 | 80 | 1010.9 |
| 20260505231537 | 60 | 198 | 24.0 | 38.0 | 0.00 | 0.00 | 0.00 | 80 | 1010.9 |
| 20260505231036 | 60 | 190 | 26.0 | 43.0 | 0.00 | 0.00 | 0.00 | 80 | 1010.8 |
| 20260505230534 | 60 | 254 | 29.0 | 43.0 | 0.00 | 0.00 | 0.00 | 80 | 1010.8 |
| 20260505230049 | 60 | 209 | 27.0 | 38.0 | 0.00 | 0.00 | 0.00 | 81 | 1010.8 |
| 20260505225534 | 59 | 198 | 27.0 | 38.0 | 0.00 | 0.00 | 0.00 | 82 | 1010.8 |
| 20260505225038 | 59 | 204 | 26.0 | 40.0 | 0.00 | 0.00 | 0.00 | 83 | 1010.7 |
| 20260505224533 | 59 | 209 | 26.0 | 38.0 | 0.00 | 0.00 | 0.00 | 83 | 1010.8 |
| 20260505224038 | 58 | 204 | 27.0 | 42.0 | 0.00 | 0.00 | 0.00 | 84 | 1010.8 |
| 20260505223532 | 58 | 194 | 27.0 | 41.0 | 0.00 | 0.00 | 0.00 | 83 | 1010.7 |
| 20260505223038 | 59 | 190 | 27.0 | 38.0 | 0.00 | 0.00 | 0.00 | 83 | 1010.5 |
| 20260505222534 | 59 | 200 | 28.0 | 45.0 | 0.00 | 0.00 | 0.00 | 83 | 1010.6 |
| 20260505222034 | 59 | 202 | 28.0 | 43.0 | 0.00 | 0.00 | 0.00 | 83 | 1010.6 |
| 20260505221536 | 59 | 119 | 26.0 | 40.0 | 0.00 | 0.00 | 0.00 | 83 | 1010.6 |
| 20260505221037 | 59 | 189 | 26.0 | 40.0 | 0.00 | 0.00 | 0.00 | 82 | 1010.6 |
| 20260505220532 | 59 | 194 | 25.0 | 40.0 | 0.00 | 0.00 | 0.00 | 82 | 1010.5 |
| 20260505220038 | 59 | 167 | 26.0 | 39.0 | 0.00 | 0.00 | 0.00 | 82 | 1010.4 |
| 20260505215532 | 59 | 219 | 26.0 | 39.0 | 0.00 | 0.00 | 0.00 | 82 | 1010.5 |
| 20260505215031 | 59 | 249 | 30.0 | 40.0 | 0.00 | 0.00 | 0.00 | 82 | 1010.7 |
| 20260505214530 | 59 | 199 | 26.0 | 43.0 | 0.00 | 0.00 | 0.00 | 83 | 1010.5 |
| 20260505214030 | 59 | 188 | 28.0 | 43.0 | 0.00 | 0.00 | 0.00 | 82 | 1010.5 |
| 20260505213530 | 59 | 198 | 26.0 | 42.0 | 0.00 | 0.00 | 0.00 | 82 | 1010.4 |
| 20260505213048 | 59 | 208 | 26.0 | 42.0 | 0.00 | 0.00 | 0.00 | 82 | 1010.3 |
| 20260505212533 | 59 | 185 | 27.0 | 39.0 | 0.00 | 0.00 | 0.00 | 82 | 1010.2 |
| 20260505212030 | 59 | 219 | 28.0 | 40.0 | 0.00 | 0.00 | 0.00 | 82 | 1010.1 |
| 20260505211530 | 59 | 197 | 28.0 | 40.0 | 0.00 | 0.00 | 0.00 | 82 | 1010.1 |
| 20260505211031 | 59 | 195 | 27.0 | 38.0 | 0.00 | 0.00 | 0.00 | 82 | 1010.1 |
| 20260505210533 | 59 | 189 | 29.0 | 41.0 | 0.00 | 0.00 | 0.00 | 82 | 1010.1 |
| 20260505210030 | 59 | 186 | 26.0 | 42.0 | 0.00 | 0.00 | 0.00 | 83 | 1010.3 |
| 20260505205529 | 59 | 204 | 28.0 | 42.0 | 0.00 | 0.00 | 0.00 | 83 | 1010.3 |
| 20260505205027 | 59 | 201 | 28.0 | 39.0 | 0.00 | 0.00 | 0.00 | 83 | 1010.1 |
| 20260505204528 | 59 | 194 | 26.0 | 38.0 | 0.00 | 0.00 | 0.00 | 83 | 1010.2 |
| 20260505204032 | 59 | 174 | 25.0 | 38.0 | 0.00 | 0.00 | 0.00 | 83 | 1010.2 |
| 20260505203528 | 59 | 187 | 23.0 | 38.0 | 0.00 | 0.00 | 0.00 | 83 | 1010.1 |
| 20260505203041 | 59 | 198 | 24.0 | 42.0 | 0.00 | 0.00 | 0.00 | 83 | 1010.1 |
| 20260505202527 | 59 | 229 | 25.0 | 39.0 | 0.00 | 0.00 | 0.00 | 83 | 1010.2 |
| 20260505202027 | 59 | 217 | 23.0 | 39.0 | 0.00 | 0.00 | 0.00 | 83 | 1010.2 |
| 20260505201527 | 59 | 208 | 24.0 | 41.0 | 0.00 | 0.00 | 0.00 | 83 | 1010.3 |
| 20260505201025 | 59 | 182 | 23.0 | 41.0 | 0.00 | 0.00 | 0.00 | 83 | 1010.3 |
| 20260505200527 | 59 | 185 | 23.0 | 36.0 | 0.00 | 0.00 | 0.00 | 83 | 1010.4 |
| 20260505200033 | 59 | 221 | 22.0 | 38.0 | 0.00 | 0.00 | 0.00 | 82 | 1010.5 |
| 20260505195626 | 60 | 226 | 18.0 | 38.0 | 0.00 | 0.00 | 0.00 | 82 | 1010.4 |
| 20260505195023 | 60 | 209 | 24.0 | 37.0 | 0.00 | 0.00 | 0.00 | 82 | 1010.5 |
| 20260505194522 | 60 | 202 | 27.0 | 37.0 | 0.00 | 0.00 | 0.00 | 82 | 1010.6 |
| 20260505194022 | 60 | 192 | 22.0 | 32.0 | 0.00 | 0.00 | 0.00 | 82 | 1010.7 |
| 20260505193522 | 60 | 223 | 22.0 | 37.0 | 0.00 | 0.00 | 0.00 | 82 | 1010.7 |
| 20260505193022 | 60 | 194 | 21.0 | 31.0 | 0.00 | 0.00 | 0.00 | 82 | 1010.9 |
| 20260505192524 | 59 | 213 | 20.0 | 33.0 | 0.00 | 0.00 | 0.00 | 83 | 1011.0 |
| 20260505192020 | 59 | 217 | 22.0 | 32.0 | 0.00 | 0.00 | 0.00 | 83 | 1011.0 |
| 20260505191520 | 59 | 193 | 23.0 | 32.0 | 0.00 | 0.00 | 0.00 | 82 | 1011.1 |
| 20260505191021 | 59 | 213 | 21.0 | 33.0 | 0.00 | 0.00 | 0.00 | 83 | 1011.2 |
| 20260505190522 | 59 | 202 | 23.0 | 36.0 | 0.00 | 0.00 | 0.00 | 83 | 1011.2 |
| 20260505190017 | 59 | 193 | 23.0 | 34.0 | 0.00 | 0.00 | 0.00 | 83 | 1011.4 |
| 20260505185520 | 59 | 198 | 22.0 | 33.0 | 0.00 | 0.00 | 0.00 | 83 | 1011.5 |
| 20260505185015 | 59 | 198 | 19.0 | 31.0 | 0.00 | 0.00 | 0.00 | 84 | 1011.5 |
| 20260505184522 | 59 | 195 | 20.0 | 32.0 | 0.00 | 0.00 | 0.00 | 84 | 1011.7 |
| 20260505184015 | 59 | 208 | 21.0 | 31.0 | 0.00 | 0.00 | 0.00 | 84 | 1011.7 |
| 20260505183514 | 59 | 195 | 21.0 | 32.0 | 0.00 | 0.00 | 0.00 | 83 | 1011.8 |
| 20260505183014 | 59 | 192 | 21.0 | 32.0 | 0.00 | 0.00 | 0.00 | 83 | 1011.8 |
| 20260505182514 | 59 | 208 | 22.0 | 30.0 | 0.00 | 0.00 | 0.00 | 84 | 1011.8 |
| 20260505182013 | 59 | 175 | 21.0 | 30.0 | 0.00 | 0.00 | 0.00 | 84 | 1011.9 |
| 20260505181512 | 59 | 192 | 21.0 | 30.0 | 0.00 | 0.00 | 0.00 | 83 | 1012.0 |
| 20260505181013 | 59 | 180 | 16.0 | 29.0 | 0.00 | 0.00 | 0.00 | 83 | 1012.0 |
| 20260505180518 | 59 | 207 | 19.0 | 30.0 | 0.00 | 0.00 | 0.00 | 83 | 1012.1 |
| 20260505180011 | 59 | 201 | 16.0 | 25.0 | 0.00 | 0.00 | 0.00 | 83 | 1012.1 |
| 20260505175510 | 59 | 205 | 16.0 | 26.0 | 0.00 | 0.00 | 0.00 | 83 | 1012.1 |
| 20260505175010 | 59 | 174 | 13.0 | 22.0 | 0.00 | 0.00 | 0.00 | 83 | 1012.3 |
| 20260505174514 | 60 | 200 | 14.0 | 21.0 | 0.00 | 0.00 | 0.00 | 82 | 1012.4 |
| 20260505174010 | 60 | 197 | 11.0 | 19.0 | 0.00 | 0.00 | 0.00 | 81 | 1012.4 |
| 20260505173514 | 61 | 184 | 6.0 | 13.0 | 0.00 | 0.00 | 0.00 | 81 | 1012.4 |
| 20260505173027 | 60 | 211 | 8.0 | 18.0 | 0.00 | 0.00 | 0.00 | 82 | 1012.5 |
| 20260505172509 | 60 | 219 | 8.0 | 17.0 | 0.00 | 0.00 | 0.00 | 82 | 1012.5 |
| 20260505172009 | 60 | 252 | 10.0 | 17.0 | 0.00 | 0.00 | 0.00 | 82 | 1012.6 |
| 20260505171509 | 60 | 252 | 9.0 | 15.0 | 0.00 | 0.00 | 0.00 | 81 | 1012.7 |
| 20260505171010 | 60 | 203 | 5.0 | 20.0 | 0.00 | 0.00 | 0.00 | 84 | 1012.7 |
| 20260505170509 | 59 | 213 | 10.0 | 20.0 | 0.00 | 0.00 | 0.00 | 83 | 1012.6 |
| 20260505170013 | 59 | 209 | 9.0 | 17.0 | 0.00 | 0.00 | 0.00 | 83 | 1012.7 |
| 20260505165508 | 59 | 187 | 11.0 | 21.0 | 0.00 | 0.00 | 0.00 | 84 | 1012.7 |
| 20260505165008 | 59 | 225 | 11.0 | 19.0 | 0.00 | 0.00 | 0.00 | 83 | 1012.7 |
| 20260505164520 | 59 | 263 | 12.0 | 19.0 | 0.00 | 0.00 | 0.00 | 83 | 1012.8 |
| 20260505164007 | 59 | 236 | 11.0 | 19.0 | 0.00 | 0.00 | 0.00 | 83 | 1012.9 |
| 20260505163508 | 59 | 200 | 12.0 | 19.0 | 0.00 | 0.00 | 0.00 | 83 | 1012.9 |
| 20260505163012 | 60 | 192 | 10.0 | 16.0 | 0.00 | 0.00 | 0.00 | 83 | 1012.8 |
| 20260505162507 | 60 | 204 | 9.0 | 13.0 | 0.00 | 0.00 | 0.00 | 83 | 1012.8 |
| 20260505162006 | 60 | 182 | 6.0 | 16.0 | 0.00 | 0.00 | 0.00 | 82 | 1013.0 |
| 20260505161507 | 59 | 231 | 8.0 | 24.0 | 0.00 | 0.00 | 0.00 | 84 | 1013.0 |
| 20260505161009 | 58 | 215 | 17.0 | 23.0 | 0.00 | 0.00 | 0.00 | 84 | 1013.1 |
| 20260505160506 | 59 | 196 | 13.0 | 19.0 | 0.00 | 0.00 | 0.00 | 83 | 1013.2 |
| 20260505153009 | 60 | 192 | 9.0 | 17.0 | 0.00 | 0.00 | 0.00 | 83 | 1013.4 |
| 20260505152501 | 60 | 199 | 4.0 | 12.0 | 0.00 | 0.00 | 0.00 | 84 | 1013.3 |
| 20260505152003 | 58 | 240 | 7.0 | 15.0 | 0.00 | 0.00 | 0.00 | 86 | 1013.4 |
| 20260505151501 | 58 | 207 | 10.0 | 15.0 | 0.00 | 0.00 | 0.00 | 86 | 1013.5 |
| 20260505151001 | 58 | 213 | 8.0 | 18.0 | 0.00 | 0.00 | 0.00 | 86 | 1013.6 |
| 20260505150501 | 58 | 209 | 13.0 | 18.0 | 0.00 | 0.00 | 0.00 | 86 | 1013.6 |
| 20260505140555 | 57 | 193 | 12.0 | 19.0 | 0.00 | 0.00 | 0.00 | 86 | 1013.5 |
| 20260505140105 | 58 | 205 | 14.0 | 19.0 | 0.00 | 0.00 | 0.00 | 86 | 1013.4 |
| 20260505124550 | 57 | 204 | 9.0 | 14.0 | 0.00 | 0.00 | 0.00 | 88 | 1013.1 |
| 20260505124050 | 57 | 218 | 7.0 | 12.0 | 0.00 | 0.00 | 0.00 | 88 | 1013.1 |
| 20260505123550 | 57 | 221 | 8.0 | 12.0 | 0.00 | 0.00 | 0.00 | 88 | 1013.0 |
| 20260505123049 | 57 | 227 | 5.0 | 10.0 | 0.00 | 0.00 | 0.00 | 89 | 1013.1 |
| 20260505122552 | 56 | 225 | 5.0 | 10.0 | 0.00 | 0.00 | 0.00 | 90 | 1013.1 |
| 20260505122048 | 56 | 228 | 5.0 | 10.0 | 0.00 | 0.00 | 0.00 | 90 | 1013.1 |
| 20260505121548 | 56 | 231 | 4.0 | 9.0 | 0.00 | 0.00 | 0.00 | 90 | 1013.0 |
| 20260505121048 | 56 | 231 | 5.0 | 9.0 | 0.00 | 0.00 | 0.00 | 90 | 1013.0 |
| 20260505120549 | 56 | 231 | 1.0 | 3.0 | 0.00 | 0.00 | 0.00 | 90 | 1013.1 |
| 20260505120048 | 56 | 231 | 0.0 | 4.0 | 0.00 | 0.00 | 0.00 | 90 | 1013.1 |
| 20260505115551 | 56 | 231 | 1.0 | 4.0 | 0.00 | 0.00 | 0.00 | 91 | 1013.2 |
| 20260505115046 | 56 | 231 | 0.0 | 4.0 | 0.00 | 0.00 | 0.00 | 91 | 1013.2 |
| 20260505114546 | 56 | 231 | 0.0 | 7.0 | 0.00 | 0.00 | 0.00 | 92 | 1013.3 |
| 20260505114045 | 55 | 231 | 4.0 | 7.0 | 0.00 | 0.00 | 0.00 | 92 | 1013.3 |
| 20260505113545 | 55 | 231 | 1.0 | 6.0 | 0.00 | 0.00 | 0.00 | 92 | 1013.2 |
| 20260505113044 | 55 | 231 | 3.0 | 6.0 | 0.00 | 0.00 | 0.00 | 92 | 1013.3 |
| 20260505112543 | 55 | 231 | 2.0 | 6.0 | 0.00 | 0.00 | 0.00 | 93 | 1013.1 |
| 20260505112042 | 55 | 231 | 3.0 | 9.0 | 0.00 | 0.00 | 0.00 | 93 | 1013.2 |
| 20260505111552 | 54 | 231 | 4.0 | 10.0 | 0.00 | 0.00 | 0.00 | 93 | 1013.2 |
| 20260505111042 | 54 | 231 | 7.0 | 10.0 | 0.00 | 0.00 | 0.00 | 93 | 1013.2 |
| 20260505110542 | 54 | 232 | 3.0 | 7.0 | 0.00 | 0.00 | 0.00 | 93 | 1013.2 |
| 20260505102039 | 53 | 225 | 2.0 | 8.0 | 0.00 | 0.00 | 0.00 | 94 | 1012.4 |
| 20260505101538 | 53 | 224 | 5.0 | 10.0 | 0.00 | 0.00 | 0.00 | 94 | 1012.4 |
| 20260505101042 | 53 | 224 | 3.0 | 11.0 | 0.00 | 0.00 | 0.00 | 94 | 1012.4 |
| 20260505100542 | 53 | 225 | 6.0 | 11.0 | 0.00 | 0.00 | 0.00 | 94 | 1012.4 |
| 20260505100048 | 53 | 233 | 8.0 | 10.0 | 0.00 | 0.00 | 0.00 | 94 | 1012.3 |
| 20260505095541 | 53 | 360 | 5.0 | 11.0 | 0.00 | 0.00 | 0.00 | 94 | 1012.3 |
| 20260505095036 | 53 | 360 | 5.0 | 11.0 | 0.00 | 0.00 | 0.00 | 94 | 1012.3 |
| 20260505094536 | 53 | 360 | 5.0 | 9.0 | 0.00 | 0.00 | 0.00 | 94 | 1012.3 |
| 20260505094036 | 53 | 360 | 4.0 | 9.0 | 0.00 | 0.00 | 0.00 | 93 | 1012.2 |
| 20260505093535 | 53 | 360 | 4.0 | 9.0 | 0.00 | 0.00 | 0.00 | 94 | 1012.2 |
| 20260505093035 | 53 | 234 | 3.0 | 8.0 | 0.00 | 0.00 | 0.00 | 93 | 1012.3 |
| 20260505092535 | 53 | 360 | 3.0 | 6.0 | 0.00 | 0.00 | 0.00 | 94 | 1012.3 |
| 20260505092034 | 53 | 234 | 2.0 | 8.0 | 0.00 | 0.00 | 0.00 | 93 | 1012.3 |
| 20260505091550 | 53 | 360 | 4.0 | 8.0 | 0.00 | 0.00 | 0.00 | 93 | 1012.3 |
| 20260505091037 | 53 | 360 | 3.0 | 8.0 | 0.00 | 0.00 | 0.00 | 93 | 1012.3 |
| 20260505090533 | 53 | 236 | 3.0 | 8.0 | 0.00 | 0.00 | 0.00 | 93 | 1012.3 |
| 20260505090050 | 53 | 236 | 3.0 | 9.0 | 0.00 | 0.00 | 0.00 | 93 | 1012.4 |
| 20260505085534 | 53 | 234 | 3.0 | 9.0 | 0.00 | 0.00 | 0.00 | 93 | 1012.3 |
| 20260505085033 | 53 | 360 | 4.0 | 9.0 | 0.00 | 0.00 | 0.00 | 93 | 1012.3 |